Weather History for KAUM - August, 2013

Change the Weather History Date:

Thursday, August 22, 2013

  Actual Average (WUND) Record (WUND)
Temperature  
Mean Temperature 71 °F -  
Max Temperature 78 °F - - (-1)
Min Temperature 64 °F - - (-1)
Cooling Degree Days 6    
Growing Degree Days 21 (Base 50)    
Moisture  
Dew Point 63 °F    
Average Humidity 76    
Maximum Humidity 94    
Minimum Humidity 47    
Precipitation  
Precipitation 0.25 in - - ()
Sea Level Pressure  
Sea Level Pressure 30.08 in    
Wind  
Wind Speed 4 mph (ENE)    
Max Wind Speed 18 mph    
Max Gust Speed 29 mph    
Visibility 8 miles    
Events Rain , Thunderstorm    
Averages and records for this station are not official NWS values.
T = Trace of Precipitation, MM = Missing Value Source: NWS Daily Summary

Daily Weather History Graph

Daily Weather History Graph

Search for Another Location

Airport or City:

Trip Planner

Search our weather history database for the weather conditions in past years. The results will help you decide how hot, cold, wet, or windy it might be!

Date:

Astronomy

Aug. 22, 2013 Rise Set
Actual Time 6:24 AM CDT 8:03 PM CDT
Civil Twilight 5:54 AM CDT 8:34 PM CDT
Nautical Twilight 5:17 AM CDT 9:10 PM CDT
Astronomical Twilight 4:37 AM CDT 9:50 PM CDT
Moon 8:41 PM CDT (8/22) 8:19 AM CDT (8/22)
Length of Visible Light 14h 40m
Length of Day
13h 39m
Waning Gibbous, 96% of the Moon is Illuminated
Aug 22
Waning Gibbous
Aug 28
Last Quarter
Sep 5
New
Sep 12
First Quarter
Sep 19
Full

Hourly Weather History & Observations

Time (CDT) Temp. Dew Point Humidity Pressure Visibility Wind Dir Wind Speed Gust Speed Precip Events Conditions
12:16 AM 69.8 °F 66.2 °F 88% 30.01 in 3.0 mi Calm Calm - N/A   Clear
12:36 AM 69.8 °F 66.2 °F 88% 30.02 in 2.5 mi Calm Calm - N/A   Clear
12:56 AM 69.8 °F 66.2 °F 88% 30.02 in 4.0 mi Calm Calm - N/A   Clear
1:16 AM 69.8 °F 66.2 °F 88% 30.02 in 4.0 mi Calm Calm - N/A   Clear
1:36 AM 69.8 °F 66.2 °F 88% 30.02 in 4.0 mi Calm Calm - N/A   Clear
1:56 AM 69.8 °F 66.2 °F 88% 30.03 in 3.0 mi Calm Calm - N/A   Clear
2:16 AM 69.8 °F 66.2 °F 88% 30.03 in 4.0 mi Calm Calm - N/A   Clear
2:36 AM 69.8 °F 66.2 °F 88% 30.03 in 3.0 mi NNW 4.6 mph - N/A   Scattered Clouds
2:56 AM 69.8 °F 66.2 °F 88% 30.02 in 3.0 mi NE 3.5 mph - N/A Thunderstorm Clear
3:17 AM 69.8 °F 66.2 °F 88% 30.02 in 3.0 mi Calm Calm - N/A   Clear
3:36 AM 69.8 °F 66.2 °F 88% 30.02 in 4.0 mi Calm Calm - N/A   Clear
3:56 AM 69.8 °F 66.2 °F 88% 30.03 in 3.0 mi Calm Calm - N/A   Clear
4:16 AM 69.8 °F 66.2 °F 88% 30.03 in 3.0 mi Calm Calm - N/A   Scattered Clouds
4:36 AM 69.8 °F 66.2 °F 88% 30.02 in 3.0 mi NNE 6.9 mph - N/A Rain Light Rain
4:56 AM 69.8 °F 66.2 °F 88% 30.06 in 4.0 mi SW 12.7 mph - N/A Rain , Thunderstorm Light Thunderstorms and Rain
5:16 AM 69.8 °F 64.4 °F 83% 30.08 in 7.0 mi SW 18.4 mph 28.8 mph 0.03 in Rain , Thunderstorm Thunderstorms and Rain
5:36 AM 66.2 °F 62.6 °F 88% 30.06 in 10.0 mi SW 5.8 mph 10.4 mph 0.04 in Rain , Thunderstorm Light Thunderstorms and Rain
5:56 AM 66.2 °F 62.6 °F 88% 30.05 in 10.0 mi SSW 5.8 mph - N/A Rain , Thunderstorm Light Thunderstorms and Rain
6:16 AM 66.2 °F 62.6 °F 88% 30.06 in 10.0 mi WSW 3.5 mph - 0.01 in Rain , Thunderstorm Light Thunderstorms and Rain
6:36 AM 66.2 °F 62.6 °F 88% 30.03 in 10.0 mi South 3.5 mph - 0.01 in Rain Light Rain
6:56 AM 66.2 °F 62.6 °F 88% 30.03 in 10.0 mi SSW 5.8 mph - N/A Thunderstorm Thunderstorm
7:16 AM 66.2 °F 62.6 °F 88% 30.09 in 10.0 mi North 13.8 mph 17.3 mph 0.01 in Thunderstorm Overcast
7:36 AM 66.2 °F 64.4 °F 94% 30.09 in 10.0 mi NNE 6.9 mph 17.3 mph 0.01 in Rain , Thunderstorm Light Thunderstorms and Rain
7:56 AM 66.2 °F 62.6 °F 88% 30.10 in 7.0 mi NNE 10.4 mph - N/A Rain , Thunderstorm Thunderstorms and Rain
8:16 AM 66.2 °F 64.4 °F 94% 30.09 in 7.0 mi NE 10.4 mph - 0.11 in Rain Heavy Rain
8:36 AM 66.2 °F 62.6 °F 88% 30.08 in 7.0 mi ENE 11.5 mph - 0.18 in Rain Rain
8:56 AM 66.2 °F 62.6 °F 88% 30.07 in 10.0 mi ENE 11.5 mph 17.3 mph N/A Rain Rain
9:16 AM 66.2 °F 62.6 °F 88% 30.06 in 10.0 mi NE 10.4 mph - 0.01 in Rain Light Rain
9:36 AM 66.2 °F 62.6 °F 88% 30.07 in 10.0 mi NE 3.5 mph - 0.01 in Rain Light Rain
9:56 AM 66.2 °F 62.6 °F 88% 30.08 in 10.0 mi Calm Calm - N/A   Clear
10:16 AM 68.0 °F 64.4 °F 88% 30.09 in 10.0 mi Calm Calm - N/A   Clear
10:36 AM 69.8 °F 64.4 °F 83% 30.08 in 10.0 mi East 3.5 mph - N/A   Clear
10:56 AM 71.6 °F 64.4 °F 78% 30.08 in 10.0 mi Calm Calm - N/A   Clear
11:17 AM 71.6 °F 64.4 °F 78% 30.08 in 10.0 mi Calm Calm - N/A   Clear
11:36 AM 73.4 °F 64.4 °F 73% 30.08 in 10.0 mi ENE 3.5 mph - N/A   Clear
11:56 AM 73.4 °F 64.4 °F 73% 30.09 in 10.0 mi ESE 5.8 mph - N/A   Unknown
12:16 PM 75.2 °F 64.4 °F 69% 30.09 in 10.0 mi ENE 5.8 mph - N/A   Unknown
12:36 PM 75.2 °F 64.4 °F 69% 30.08 in 10.0 mi ENE 9.2 mph - N/A   Scattered Clouds
12:56 PM 75.2 °F 64.4 °F 69% 30.09 in 10.0 mi East 6.9 mph - N/A   Scattered Clouds
1:17 PM 75.2 °F 64.4 °F 69% 30.09 in 10.0 mi ENE 8.1 mph - N/A   Scattered Clouds
1:36 PM 75.2 °F 64.4 °F 69% 30.09 in 10.0 mi ENE 8.1 mph - N/A   Scattered Clouds
1:56 PM 78.8 °F 64.4 °F 61% 30.10 in 10.0 mi ENE 6.9 mph - N/A   Scattered Clouds
2:16 PM 78.8 °F 62.6 °F 57% 30.10 in 10.0 mi East 6.9 mph - N/A   Scattered Clouds
2:36 PM 78.8 °F 64.4 °F 61% 30.10 in 10.0 mi ENE 9.2 mph - N/A   Clear
2:56 PM 78.8 °F 62.6 °F 57% 30.10 in 10.0 mi ENE 9.2 mph - N/A   Clear
3:16 PM 78.8 °F 62.6 °F 57% 30.10 in 10.0 mi NE 6.9 mph - N/A   Clear
3:36 PM 78.8 °F 60.8 °F 54% 30.10 in 10.0 mi NE 9.2 mph - N/A   Clear
3:56 PM 78.8 °F 59.0 °F 51% 30.10 in 10.0 mi ENE 8.1 mph - N/A   Clear
4:16 PM 78.8 °F 59.0 °F 51% 30.10 in 10.0 mi ENE 6.9 mph - N/A   Clear
4:36 PM 78.8 °F 59.0 °F 51% 30.10 in 10.0 mi East 10.4 mph - N/A   Clear
4:56 PM 78.8 °F 59.0 °F 51% 30.10 in 10.0 mi ENE 4.6 mph - N/A   Clear
5:16 PM 78.8 °F 57.2 °F 47% 30.10 in 10.0 mi ENE 6.9 mph - N/A   Clear
5:37 PM 78.8 °F 59.0 °F 51% 30.10 in 10.0 mi NE 6.9 mph - N/A   Clear
5:56 PM 78.8 °F 59.0 °F 51% 30.10 in 10.0 mi NE 5.8 mph - N/A   Clear
6:17 PM 78.8 °F 57.2 °F 47% 30.10 in 10.0 mi ENE 4.6 mph - N/A   Clear
6:36 PM 78.8 °F 57.2 °F 47% 30.09 in 10.0 mi NE 4.6 mph - N/A   Clear
6:56 PM 78.8 °F 60.8 °F 54% 30.09 in 10.0 mi NE 4.6 mph - N/A   Clear
7:17 PM 77.0 °F 60.8 °F 57% 30.10 in 10.0 mi NE 4.6 mph - N/A   Clear
7:36 PM 75.2 °F 60.8 °F 61% 30.10 in 10.0 mi NE 4.6 mph - N/A   Clear
7:57 PM 73.4 °F 60.8 °F 65% 30.10 in 10.0 mi Calm Calm - N/A   Clear
8:16 PM 71.6 °F 62.6 °F 73% 30.10 in 10.0 mi Calm Calm - N/A   Clear
8:36 PM 71.6 °F 62.6 °F 73% 30.10 in 10.0 mi ENE 3.5 mph - N/A   Clear
8:57 PM 69.8 °F 62.6 °F 78% 30.11 in 10.0 mi Calm Calm - N/A   Clear
9:16 PM 69.8 °F 60.8 °F 73% 30.12 in 10.0 mi Calm Calm - N/A   Clear
9:36 PM 69.8 °F 60.8 °F 73% 30.12 in 10.0 mi Calm Calm - N/A   Clear
9:56 PM 68.0 °F 60.8 °F 78% 30.12 in 10.0 mi Calm Calm - N/A   Clear
10:16 PM 66.2 °F 62.6 °F 88% 30.12 in 10.0 mi Calm Calm - N/A   Clear
10:37 PM 66.2 °F 62.6 °F 88% 30.13 in 10.0 mi Calm Calm - N/A   Clear
10:56 PM 64.4 °F 60.8 °F 88% 30.12 in 10.0 mi Calm Calm - N/A   Clear
11:16 PM 64.4 °F 60.8 °F 88% 30.13 in 10.0 mi Calm Calm - N/A   Clear
11:37 PM 64.4 °F 60.8 °F 88% 30.13 in 10.0 mi Calm Calm - N/A   Clear
11:56 PM 64.4 °F 60.8 °F 88% 30.13 in 10.0 mi Calm Calm - N/A   Clear